Location: Cz?stochówka
(50.8142°N, 19.0915°E)
Time: 09:43:22
(UTC+00:00)

Cosmos 2278 Rocket - Pass Details

Date: 13 January 2026
Orbit: 839 x 846 km, 71.0° (Epoch: 17 February)

Event Time Altitude Azimuth Distance (km) Brightness Sun altitude
Rises 05:26:27 0° 213° (SSW) 3,381 5.2 -11.3°
Reaches altitude 10° 05:28:53 10° 215° (SW) 2,451 4.5 -11.0°
Maximum altitude 05:34:31 75° 301° (WNW) 873 2.1 -10.1°
Drops below altitude 10° 05:40:12 10° 28° (NNE) 2,471 4.7 -9.3°
Sets 05:42:40 0° 30° (NNE) 3,411 5.4 -8.9°
